Regional Weather Roundup
Issued by NWS Burlington, VT

Home | Current Version | Previous Version | Text Only | Print | Product List | Glossary On
Versions: 1 2 3 4 5 6 7 8 9 10 11 12 13 14 15 16 17 18 19 20 21 22 23 24 25 26 27 28 29 30 31 32 33 34 35 36 37 38 39 40 41 42 43 44 45 46 47 48 49 50
000
ASUS41 KBTV 271910
RWRBTV
VERMONT REGIONAL WEATHER ROUNDUP
NATIONAL WEATHER SERVICE BURLINGTON VT
300 PM EDT WED JUL 27 2016

NOTE: "FAIR" INDICATES FEW OR NO CLOUDS BELOW 12,000 FEET WITH NO
SIGNIFICANT WEATHER AND/OR OBSTRUCTIONS TO VISIBILITY.

* THESE REPORTS ARE NOT UNDER NWS QUALITY CONTROL AND/OR DO NOT
  REPORT WEATHER SUCH AS PRECIPITATION AND FOG.

VTZ001>019-272000-
_____VERMONT_____


CITY           SKY/WX    TMP DP  RH WIND       PRES   REMARKS
BURLINGTON     FAIR      89  59  36 S6        29.87F
MONTPELIER     FAIR      83  56  39 W6        29.96F
MORRISVILLE    FAIR      86  61  42 SW6       29.92S
ST. JOHNSBURY*   N/A     86  59  39 MISG      29.88F
LYNDONVILLE*   FAIR      83  60  45 S6        29.93F
MIDDLEBURY*    FAIR      86  58  37 SE5       29.89F
RUTLAND*       PTSUNNY   85  60  42 VRB7      29.92F
SPRINGFIELD    FAIR      87  56  34 VRB6      29.91F
HIGHGATE*      FAIR      87  64  46 SW6       29.87S
NEWPORT*       FAIR      82  61  47 W7        29.91F
BENNINGTON     FAIR      86  58  38 N8        29.93F
SUTTON*          N/A     81 N/A N/A MISG        N/A

_____LAKE CHAMPLAIN_____


CITY           SKY/WX    TMP DP  RH WIND       PRES   REMARKS
BURTON ISLAND*   N/A     81  68  65 SW5         N/A
COLCHESTER RF*   N/A     82  61  47 S12         N/A
DIAMOND ISL*     N/A     86  63  45 SE2         N/A

$$

NYZ007-026>031-035-052-083-087-272000-
_____NORTHERN NEW YORK_____


CITY           SKY/WX    TMP DP  RH WIND       PRES   REMARKS
PLATTSBURGH    SUNNY     85  63  47 SE14      29.86F
SARANAC LAKE   SUNNY     82  53  36 SW12G18   29.94F
MASSENA        SUNNY     86  62  44 W9        29.87F
OGDENSBURG*    SUNNY     88  63  42 W8        29.88S
POTSDAM*       SUNNY     88  64  45 W7G17     29.89F
WATERTOWN      SUNNY     85  57  38 W13       29.92F
FT DRUM        SUNNY     85  57  38 SW12G17   29.91F
ALBANY         MOSUNNY   89  56  32 W7G17     29.92F
GLENS FALLS    SUNNY     87  63  44 S13       29.89F

$$
NHZ002-005-011-272000-
_____NEW HAMPSHIRE_____


CITY           SKY/WX    TMP DP  RH WIND       PRES   REMARKS
LEBANON        PTSUNNY   88  57  34 CALM      29.89F
KEENE          SUNNY     89  58  34 VRB5      29.89F
MT WASHINGTON  MOSUNNY   61  46  59 W12G17      N/A
PLYMOUTH       FAIR      88  56  33 CALM      29.89F
WHITEFIELD     SUNNY     84  57  39 VRB5      29.92F

$$

_____REGIONAL QUEBEC LOCATIONS_____


CITY           SKY/WX    TMP DP  RH WIND       PRES   REMARKS
MONTREAL       PTSUNNY   86  63  45 SW18G30   29.84F
QUEBEC CITY    MOSUNNY   84  64  51 SW17G26   29.79S
SHERBROOKE     PTSUNNY   84  61  45 SW8       29.87F

_____REGIONAL ONTARIO LOCATIONS_____


CITY           SKY/WX    TMP DP  RH WIND       PRES   REMARKS
OTTAWA         PTSUNNY   86  63  45 SW9       29.86F

______KEY______
VSB  - VISIBILITY IN MILES
WCI  - WIND CHILL INDEX
HX   - HEAT INDEX
$$
NNNN




USA.gov is the U.S. government's official web portal to all federal, state and local government web resources and services.